User: anonymous   Login
Location: Westminster College Observatory
(41.1194°N, 80.3291°W)
Time: 08:16:21
(UTC-04:00)
Language:

Tiangong 2 - Orbit

View from above orbital plane
View from above orbital plane
View from above satellite
View from above satellite

Ground track
Ground track

The orbit data is extracted from the following two-line orbital elements,

1 41765U 16057A   19082.14592880  .00003632  00000-0  46518-4 0  9991
2 41765  42.7840 120.0331 0007429  19.5249  35.2041 15.60992997143596
Epoch (UTC): 23 March 2019 03:30:08
Eccentricity: 0.0007429
inclination: 42.7840°
perigee height: 380 km
apogee height: 390 km
right ascension of ascending node: 120.0331°
argument of perigee: 19.5249°
revolutions per day: 15.60992997
mean anomaly at epoch: 35.2041°
orbit number at epoch: 14359

The dashed part of the orbit path shows where the satellite is in the earth's shadow,  

DLR